Flag for Germany Weather past 2 weeks in Hanau, Hesse, Germany

Now
45 °F

Clear.


Feels Like: 45 °F
Forecast: 48 / 72 °F
Wind: 2 mph from North

Location: Frankfurt-M-Flughafen Airport

Current Time: Jul 30, 2015 at 6:51:03 AM

Latest Report: Jul 30, 2015 at 5:50 AM


Visibility: 10 mi

Pressure: 29.95 "Hg

Humidity: 93%

Dew point: 43 °F

Location of HanauLocation

Historic Weather in Hanau — Graph

°F

Hanau temperature yesterday

Maximum temperature yesterday: 72 °F (at 4:20 PM)
Minimum temperature yesterday: 54 °F (at 11:50 PM)
Average temperature yesterday: 63 °F

Past Weeks' High & Low Weather Summary

 TemperatureHumidityPressure
High95 °F (Jul 17, 4:20 PM)94% (Jul 18, 12:50 AM)30.12 "Hg (Jul 18, 12:50 AM)
Low45 °F (Jul 30, 4:50 AM)22% (Jul 17, 4:20 PM)29.62 "Hg (Jul 24, 11:20 PM)
Average72 °F60%29.90 "Hg
* Reported Jul 15 5:20 AM — Jul 30 5:20 AM, Hanau, Weather by CustomWeather, © 2015

Note: Actual official high and low records may vary slightly from our data, if they occured in-between our weather recording intervals... More about our weather records

Advertising

Hanau weather history for previous 24 hours

 ConditionsComfort  
Time TempWeatherWind HumidityBarometerVisibility
5:20 AM
Thu, Jul 30
45 °FPassing clouds.3 mph87%29.95 "HgN/A
4:50 AM45 °FClear.2 mph93%29.95 "Hg10 mi
4:20 AM46 °FClear.2 mph87%29.95 "Hg10 mi
3:50 AM48 °FClear.2 mph87%29.95 "Hg10 mi
3:20 AM48 °FClear.6 mph87%29.95 "Hg10 mi
2:50 AM52 °FClear.7 mph72%29.95 "Hg10 mi
2:20 AM50 °FClear.5 mph82%29.95 "Hg10 mi
1:50 AM52 °FClear.5 mph77%29.95 "Hg10 mi
1:20 AM52 °FPassing clouds.3 mph77%29.95 "HgN/A
12:50 AM52 °FClear.3 mph77%29.95 "Hg10 mi
12:20 AM54 °FClear.5 mph72%29.92 "Hg10 mi
11:50 PM
Wed, Jul 29
54 °FClear.6 mph72%29.92 "Hg10 mi
11:20 PM55 °FClear.5 mph63%29.92 "Hg10 mi
10:50 PM59 °FPassing clouds.6 mph55%29.92 "HgN/A
10:20 PM63 °FClear.6 mph45%29.92 "Hg10 mi
9:50 PM64 °FSunny.8 mph43%29.89 "Hg10 mi
9:20 PM64 °FPassing clouds.9 mph40%29.89 "HgN/A
8:50 PM66 °FPassing clouds.13 mph35%29.86 "HgN/A
8:20 PM68 °FSunny.12 mph38%29.86 "Hg10 mi
7:50 PM68 °FSunny.15 mph35%29.86 "Hg10 mi
7:20 PM68 °FSunny.14 mph33%29.83 "Hg10 mi
6:50 PM68 °FSunny.20 mph33%29.83 "Hg10 mi
6:20 PM70 °FPassing clouds.20 mph31%29.83 "HgN/A
5:50 PM70 °FSunny.16 mph31%29.83 "Hg10 mi
5:20 PM70 °FSunny.17 mph31%29.80 "Hg10 mi
4:50 PM72 °FSunny.20 mph29%29.80 "Hg10 mi
4:20 PM72 °FPassing clouds.15 mph29%29.80 "HgN/A
3:50 PM70 °FSunny.15 mph31%29.77 "Hg10 mi
3:20 PM68 °FScattered clouds.16 mph43%29.77 "HgN/A
2:50 PM66 °FScattered clouds.17 mph46%29.80 "HgN/A
2:20 PM68 °FScattered clouds.17 mph49%29.80 "HgN/A
1:50 PM64 °FScattered clouds.15 mph52%29.80 "HgN/A
1:20 PM63 °FPartly sunny.13 mph68%29.80 "HgN/A
12:50 PM61 °FPartly sunny.13 mph72%29.80 "HgN/A
12:20 PM59 °FLight rain. Partly sunny.14 mph88%29.80 "HgN/A
11:50 AM61 °FLight rain. Broken clouds.13 mph68%29.80 "HgN/A
11:20 AM61 °FLight rain. Partly sunny.13 mph59%29.80 "HgN/A
10:50 AM61 °FLight rain. Broken clouds.15 mph63%29.80 "HgN/A
10:20 AM61 °FLight rain. Partly sunny.13 mph63%29.80 "HgN/A
9:20 AM61 °FLight rain. Broken clouds.12 mph63%29.83 "HgN/A
8:50 AM61 °FLight rain. Partly sunny.12 mph63%29.83 "HgN/A
8:20 AM59 °FLight rain. Partly sunny.9 mph72%29.83 "HgN/A
7:50 AM59 °FPartly sunny.10 mph72%29.83 "HgN/A
7:20 AM59 °FBroken clouds.12 mph72%29.83 "HgN/A
6:50 AM57 °FScattered clouds.12 mph72%29.83 "HgN/A
Weather by CustomWeather, © 2015

See weather overviewHow to use our weather pages